Location: Rodson Ranch
(38.7188°N, 119.3202°W)
Time: 17:27:08
(UTC+00:00)

Cosmos 1833 Rocket - Pass Details

Date: 29 October 2020
Orbit: 832 x 840 km, 71.0° (Epoch: 23 November)

Event Time Altitude Azimuth Distance (km) Brightness Sun altitude
Exits shadow 13:29:05 13° 296° (WNW) 2,274 4.3 -10.8°
Maximum altitude 13:30:25 14° 311° (NW) 2,215 4.4 -10.6°
Drops below altitude 10° 13:33:08 10° 340° (NNW) 2,463 4.8 -10.0°
Sets 13:37:01 0° 6° (N) 3,402 5.8 -9.3°
